Terminal Aerodrome Forecast
Issued by NWS Sterling, VA

Current Version | Previous Version | Text Only | Print | Product List | Glossary Off
Versions: 1 2 3 4 5 6 7 8 9 10 11 12 13 14 15 16 17 18 19 20 21 22 23 24 25

824
FTUS41 KLWX 272339
TAFIAD
TAF
KIAD 272339Z 2800/2906 18011KT P6SM BKN080
     FM280400 20007KT P6SM BKN045
     FM280800 24004KT 3SM BR BKN080
     FM281000 27003KT 2SM BR SCT250
     FM281200 33004KT 3SM BR SCT250
     FM281300 33006KT P6SM SCT250
     FM281700 24004KT P6SM FEW250
     FM282100 18007KT P6SM SCT250=

USA.gov is the U.S. government's official web portal to all federal, state and local government web resources and services.